This demonstration page uses our WeatherBlox Daily Observations layout. Learn more.

Left ArrowRight Arrow

39.92423, -83.80882

Hourly Observations for March 29, 2017

Temp ( °F °C ) Dew Point ( °F °C ) Humidity (%) Winds ( mph kmh ) Pressure ( in mb ) Visibility ( mi km ) Precip ( " mm )
12:56 am 00:56 Cloudy 45 7.2 41 5 86 86 NE 13 20 30.18 1022 10 16.0934 0 0
1:56 am 01:56 Cloudy 44 6.7 40 4.4 85 85 ENE 12 19 30.18 1022 10 16.0934 0 0
2:56 am 02:56 Cloudy 43 6.1 39 3.9 86 86 ENE 7 11 30.18 1022 10 16.0934 0 0
3:09 am 03:09 Mostly Cloudy 43 6 37 3 81 81 ENE 8 13 30.21 1023 10 16.0934 0 0
3:56 am 03:56 Cloudy 42 5.6 38 3.3 85 85 NE 7 11 30.17 1022 10 16.0934 0 0
4:56 am 04:56 Mostly Cloudy 41 5 37 2.8 86 86 NE 12 19 30.17 1022 10 16.0934 0 0
5:24 am 05:24 Mostly Cloudy 41 5 37 3 87 87 NE 12 19 30.18 1022 10 16.0934 0 0
5:37 am 05:37 Partly Cloudy 39 4 36 2 87 87 NE 13 20 30.21 1023 10 16.0934 0 0
5:56 am 05:56 Clear 38 3.3 34 1.1 86 86 ENE 14 22 30.18 1022 10 16.0934 0 0
6:38 am 06:38 Mostly Cloudy 36 2 34 1 93 93 NE 14 22 30.24 1024 10 16.0934 0 0
6:53 am 06:53 Cloudy 37 3 34 1 87 87 NE 9 15 30.24 1024 10 16.0934 0 0
6:56 am 06:56 Cloudy 37 2.8 34 1.1 89 89 NE 10 17 30.22 1023 10 16.0934 0 0
7:56 am 07:56 Cloudy with Mist and Fog 38 3.3 37 2.8 97 97 ENE 8 13 30.22 1023 3 4.82802 0 0
8:56 am 08:56 Cloudy 41 5 39 3.9 93 93 ENE 14 22 30.22 1023 10 16.0934 0 0
9:16 am 09:16 Cloudy 43 6 39 4 87 87 ENE 13 20 30.24 1024 10 16.0934 0 0
9:38 am 09:38 Cloudy 43 6 39 4 87 87 ENE 10 17 30.24 1024 10 16.0934 0 0
9:56 am 09:56 Cloudy 44 6.7 39 3.9 83 83 ENE 14 22 30.23 1024 10 16.0934 0 0
10:56 am 10:56 Cloudy 47 8.3 39 3.9 74 74 E 14 22 30.23 1024 10 16.0934 0 0
11:56 am 11:56 Mostly Cloudy 49 9.4 40 4.4 71 71 E 8 13 30.23 1024 10 16.0934 0 0
12:37 pm 12:37 Partly Cloudy 52 11 39 4 62 62 E 14 22 30.21 1023 10 16.0934 0 0
12:56 pm 12:56 Sunny 54 12.2 41 5 62 62 E 10 17 30.21 1023 10 16.0934 0 0
1:56 pm 13:56 Sunny 56 13.3 41 5 57 57 ENE 10 17 30.19 1022 10 16.0934 0 0
2:56 pm 14:56 Sunny 58 14.4 41 5 53 53 E 12 19 30.19 1022 10 16.0934 0 0
3:56 pm 15:56 Sunny 59 15 41 5 51 51 E 8 13 30.17 1022 10 16.0934 0 0
4:56 pm 16:56 Sunny 60 15.6 42 5.6 52 52 ENE 13 20 30.14 1021 10 16.0934 0 0
5:56 pm 17:56 Sunny 60 15.6 41 5 50 50 ENE 10 17 30.14 1021 10 16.0934 0 0
6:56 pm 18:56 Sunny 58 14.4 40 4.4 51 51 ENE 12 19 30.13 1020 10 16.0934 0 0
7:56 pm 19:56 Sunny 54 12.2 39 3.9 57 57 ENE 10 17 30.11 1020 10 16.0934 0 0
8:56 pm 20:56 Mostly Cloudy 50 10 40 4.4 68 68 ENE 8 13 30.13 1020 10 16.0934 0 0
9:56 pm 21:56 Cloudy 51 10.6 42 5.6 71 71 ENE 9 15 30.11 1020 10 16.0934 0 0
10:56 pm 22:56 Mostly Cloudy 50 10 39 3.9 66 66 E 15 24 30.07 1018 10 16.0934 0 0
11:56 pm 23:56 Clear 50 10 38 3.3 63 63 ESE 14 22 30.06 1018 10 16.0934 0 0

Powered by AerisWeather